This is the latest recevied weather packets stored in our database for station/object OK1LPD-5. If no packets are shown the sender has not sent any weather packets the latest 10 day(s).
| Time | Temp. | Humidity | Pressure | Rain* | Wind** | Luminosity | Snow |
|---|---|---|---|---|---|---|---|
| 1777156209 | 6.11° C | 63% | 1012.8 hPa | 0 mm | - | - | - |
| 1777155614 | 6.67° C | 63% | 1012.6 hPa | 0 mm | - | - | - |
| 1777155014 | 6.67° C | 63% | 1012.5 hPa | 0 mm | - | - | - |
| 1777154412 | 6.67° C | 61% | 1012.2 hPa | 0 mm | - | - | - |
| 1777153812 | 7.22° C | 59% | 1012.1 hPa | 0 mm | - | - | - |
| 1777153213 | 7.78° C | 58% | 1012.1 hPa | 0 mm | - | - | - |
| 1777152610 | 7.78° C | 56% | 1011.8 hPa | 0 mm | - | - | - |
| 1777152013 | 8.33° C | 54% | 1011.9 hPa | 0 mm | - | - | - |
| 1777151413 | 8.89° C | 53% | 1011.7 hPa | 0 mm | - | - | - |
| 1777150810 | 9.44° C | 50% | 1011.5 hPa | 0 mm | - | - | - |
| 1777150213 | 10° C | 49% | 1011.5 hPa | 0 mm | - | - | - |
| 1777149612 | 10.56° C | 47% | 1011.3 hPa | 0 mm | - | - | - |
| 1777149010 | 10° C | 48% | 1011.3 hPa | 0 mm | - | - | - |
| 1777148413 | 10.56° C | 48% | 1011 hPa | 0 mm | - | - | - |
| 1777147811 | 10° C | 48% | 1010.9 hPa | 0 mm | - | - | - |
| 1777147210 | 10° C | 48% | 1010.8 hPa | 0 mm | - | - | - |
| 1777146612 | 10.56° C | 47% | 1010.6 hPa | 0 mm | - | - | - |
| 1777146009 | 10.56° C | 46% | 1010.4 hPa | 0 mm | - | - | - |
| 1777145408 | 11.11° C | 44% | 1010.3 hPa | 0 mm | - | - | - |
| 1777144812 | 11.67° C | 43% | 1010.1 hPa | 0 mm | - | - | - |
| 1777144210 | 12.22° C | 42% | 1009.9 hPa | 0 mm | - | - | - |
| 1777143610 | 12.22° C | 42% | 1009.7 hPa | 0 mm | - | - | - |
| 1777143012 | 12.22° C | 42% | 1009.5 hPa | 0 mm | - | - | - |
| 1777142410 | 12.78° C | 41% | 1009.2 hPa | 0 mm | - | - | - |
| 1777141809 | 13.89° C | 39% | 1009 hPa | 0 mm | - | - | - |
* Rain latest hour (hover to see other rain measurements)
** Current wind speed in m/s (hover to see current wind gust speed)